User: anonymous   Login
Location: Brno
(49.2000°N, 16.6330°E)
Time: 14:22:28
(UTC+02:00)
Language:

BREEZE M DEB (TANK) - Orbit

View from above orbital plane
View from above orbital plane
View from above satellite
View from above satellite

Ground track
Ground track

The orbit data is extracted from the following two-line orbital elements,

1 28359U 04022B   14295.42624534  .00004969  00000-0  78177-3 0  2822
2 28359 049.5275 288.4906 4704345 128.9000 008.2797 06.12017893225497
Epoch (UTC): 22 October 2014 10:13:47
Eccentricity: 0.4704345
inclination: 49.5275°
perigee height: 307 km
apogee height: 12186 km
right ascension of ascending node: 288.4906°
argument of perigee: 128.9000°
revolutions per day: 6.12017893
mean anomaly at epoch: 8.2797°
orbit number at epoch: 22549

The dashed part of the orbit path shows where the satellite is in the earth's shadow,  

DLR